Location: Slave Lake
(55.2830°N, 114.7830°W)
Time: 03:48:10
(UTC-06:00)

Amateur Radio Satellites - All Passes

Search period start: 27 May 2015 03:18
Search period end: 28 May 2015 03:18
Location: Slave Lake, 55.2830°N, 114.7830°W

Satellite Date Start Highest point End Downlink Frequencies (MHz)
Time Altitude Azimuth
STARS 27 May 03:19:20 03:23:41 56° 68° (ENE) 03:28:06 437.465
PCSat 27 May 03:25:01 03:30:27 75° 314° (NW) 03:35:56 145.827
DANDE 27 May 03:27:47 03:32:23 16° 290° (WNW) 03:36:19 436.750
ISS 27 May 03:32:24 03:35:31 43° 177° (S) 03:38:39 145.825
BEESAT 3 27 May 03:38:07 03:41:56 37° 235° (SW) 03:45:40 437.485
ITUPSAT 1 27 May 03:42:47 03:46:22 20° 272° (W) 03:49:51 437.325
MOZHAYETS 4 27 May 03:45:33 03:48:56 21° 56° (ENE) 03:52:23
BEESAT 27 May 03:50:56 03:54:10 17° 274° (W) 03:57:17 436.000
KKS-1 27 May 03:51:38 03:56:04 56° 259° (WSW) 04:00:32 437.445
Oscar 19 27 May 03:54:10 03:59:22 72° 289° (WNW) 04:04:29 437.125/150
Cosmos 2499 27 May 03:55:25 04:02:18 54° 268° (W) 04:09:08 435.465 / 435.565
SWISSCUBE 27 May 04:00:19 04:02:54 14° 276° (W) 04:05:19 437.505
AO-7 27 May 04:06:12 04:11:24 18° 80° (E) 04:16:59 29.400- 29.500
ITAMSAT 1 27 May 04:08:10 04:13:20 57° 101° (E) 04:18:30 435.822/435.867
AIST 2 27 May 04:16:58 04:21:10 55° 230° (SW) 04:25:15 435.215
SO-50 27 May 04:19:15 04:23:23 31° 121° (ESE) 04:27:41 436.795
Cosmos 2491 27 May 04:25:18 04:30:48 18° 35° (NE) 04:36:32 435.465 / 435.565
BEESAT 2 27 May 04:27:35 04:30:34 19° 242° (WSW) 04:33:27 435.950
HORYU 2 27 May 04:28:55 04:32:04 19° 88° (E) 04:35:17 437.375
GONETS M04 27 May 04:34:52 04:37:27 11° 298° (WNW) 04:39:31
Gurwin Techsat 1B 27 May 04:46:22 04:51:44 81° 289° (WNW) 04:57:04 435.225
STARS 27 May 04:56:49 05:00:29 24° 269° (W) 05:04:06 437.465
JAS-2 27 May 04:57:20 05:02:00 32° 93° (E) 05:06:43 435.910
ISS 27 May 05:08:37 05:11:36 32° 196° (SSW) 05:14:34 145.825
PCSat 27 May 05:09:55 05:14:42 30° 339° (NNW) 05:19:30 145.827
STRAND 1 27 May 05:10:14 05:12:00 12° 43° (NE) 05:13:56 437.568
MOZHAYETS 4 27 May 05:21:08 05:25:43 76° 256° (WSW) 05:30:19
CUBESAT XI-V 27 May 05:24:39 05:27:56 20° 55° (NE) 05:31:20 437.345
M-CUBED/EXP-1 PRIME 27 May 05:30:13 05:31:00 11° 44° (NE) 05:31:53 437.505
Oscar 19 27 May 05:34:31 05:37:57 18° 311° (NW) 05:41:16 437.125/150
AUBIESAT-1 27 May 05:38:04 05:39:00 11° 45° (NE) 05:40:02 437.475
ITAMSAT 1 27 May 05:48:03 05:52:38 32° 302° (WNW) 05:57:11 435.822/435.867
Cosmos 2499 27 May 05:51:06 05:53:52 12° 290° (WNW) 05:56:16 435.465 / 435.565
AO-7 27 May 05:57:49 06:06:10 65° 105° (ESE) 06:14:29 29.400- 29.500
AIST 2 27 May 05:58:10 05:58:54 10° 249° (WSW) 05:59:28 435.215
SO-50 27 May 05:58:51 06:03:39 70° 323° (NW) 06:08:37 436.795
HORYU 2 27 May 06:04:48 06:09:15 71° 289° (WNW) 06:13:39 437.375
Cosmos 2491 27 May 06:22:03 06:30:34 48° 64° (ENE) 06:39:03 435.465 / 435.565
CUTE-I 27 May 06:23:52 06:25:27 11° 79° (E) 06:27:19 437.470
Gurwin Techsat 1B 27 May 06:27:13 06:31:03 20° 309° (NW) 06:34:48 435.225
JAS-2 27 May 06:42:25 06:47:28 48° 295° (WNW) 06:52:27 435.910
PRISM 27 May 06:42:54 06:46:43 39° 65° (ENE) 06:50:35 437.425
Cubesat XI-IV 27 May 06:43:17 06:46:34 17° 84° (E) 06:50:01 437.490
STRAND 1 27 May 06:45:17 06:50:05 44° 64° (ENE) 06:54:58 437.568
ISS 27 May 06:45:52 06:47:21 12° 215° (SW) 06:48:47 145.825
AIST 1 27 May 06:54:38 06:57:17 16° 56° (ENE) 07:00:03
PCSat 27 May 06:55:17 06:59:40 24° 4° (N) 07:04:04 145.827
CUBESAT XI-V 27 May 07:00:15 07:04:53 83° 255° (WSW) 07:09:34 437.345
M-CUBED/EXP-1 PRIME 27 May 07:01:18 07:05:14 51° 63° (ENE) 07:08:51 437.505
MOZHAYETS 4 27 May 07:01:39 07:03:51 13° 278° (W) 07:05:51
AUBIESAT-1 27 May 07:09:18 07:13:11 53° 63° (ENE) 07:16:48 437.475
YUBILEINY 27 May 07:23:53 07:31:15 33° 81° (E) 07:38:45 435.215
SO-50 27 May 07:40:33 07:44:57 32° 346° (NNW) 07:49:23 436.795
HORYU 2 27 May 07:42:39 07:45:12 15° 309° (NW) 07:47:37 437.375
AO-7 27 May 07:50:57 07:58:48 46° 308° (NW) 08:06:36 29.400- 29.500
CUTE-I 27 May 08:01:32 08:06:51 58° 101° (E) 08:12:09 437.470
PRISM 27 May 08:18:39 08:22:17 29° 265° (W) 08:25:54 437.425
Cosmos 2491 27 May 08:19:10 08:27:46 57° 269° (W) 08:36:16 435.465 / 435.565
Cubesat XI-IV 27 May 08:22:13 08:27:38 80° 105° (ESE) 08:33:02 437.490
STRAND 1 27 May 08:24:41 08:29:25 37° 264° (W) 08:34:11 437.568
BRITE-PL 27 May 08:27:15 08:31:08 19° 82° (E) 08:35:05 437.365/2234.400
JAS-2 27 May 08:29:18 08:31:29 12° 318° (NW) 08:33:29 435.910
GOMX 1 27 May 08:29:32 08:31:50 13° 78° (ENE) 08:34:19 467.674
AIST 1 27 May 08:31:16 08:35:40 88° 74° (ENE) 08:40:05
M-CUBED/EXP-1 PRIME 27 May 08:37:02 08:40:18 22° 260° (W) 08:43:20 437.505
PCSat 27 May 08:39:24 08:44:28 38° 29° (NNE) 08:49:34 145.827
CUBESAT XI-V 27 May 08:40:32 08:43:09 14° 277° (W) 08:45:37 437.345
AUBIESAT-1 27 May 08:45:05 08:48:13 21° 260° (W) 08:51:07 437.475
RS-15 27 May 08:47:39 08:55:33 25° 102° (ESE) 09:04:01 29.354- 29.394
TIGRISAT 27 May 09:00:47 09:01:56 11° 47° (NE) 09:03:14 435.000
YUBILEINY 27 May 09:18:37 09:27:24 78° 284° (WNW) 09:36:12 435.215
UNISAT 6 27 May 09:19:42 09:22:15 15° 52° (NE) 09:24:54 437.425
SO-50 27 May 09:22:19 09:26:40 30° 10° (N) 09:31:03 436.795
DOVE 4 27 May 09:27:45 09:31:53 24° 87° (E) 09:35:57 437.250
CUTE-I 27 May 09:41:59 09:46:44 32° 302° (WNW) 09:51:26 437.470
AO-7 27 May 09:44:03 09:49:48 21° 333° (NNW) 09:55:23 29.400- 29.500
NANOSAT C BR1 27 May 09:49:32 09:51:25 13° 51° (NE) 09:53:26 145.865
CANX-2 27 May 09:52:28 09:56:16 32° 94° (E) 10:00:05 2200.000
CUBEBUG 2 27 May 09:55:01 09:56:07 11° 80° (E) 09:57:24 437.445
CUTE 1.7 + AOD 2 27 May 09:55:58 09:59:46 32° 94° (E) 10:03:34 437.475
QB50P2 27 May 09:57:11 09:59:35 15° 53° (NE) 10:02:06 145.880/145.840
ANTELSAT 27 May 10:01:16 10:05:13 28° 60° (ENE) 10:09:09 437.575/2403.000
HO-68 27 May 10:01:20 10:08:07 43° 97° (E) 10:14:54 435.675
Cubesat XI-IV 27 May 10:02:57 10:07:16 25° 306° (NW) 10:11:31 437.490
BRITE-PL 27 May 10:04:47 10:10:33 84° 103° (ESE) 10:16:08 437.365/2234.400
GOMX 1 27 May 10:05:45 10:11:13 62° 100° (E) 10:16:25 467.674
Oscar 11 27 May 10:06:00 10:08:14 14° 84° (E) 10:10:38 145.826/435.025
POPSAT HIP 1 27 May 10:08:50 10:11:40 18° 55° (NE) 10:14:36 437.405
AIST 1 27 May 10:10:18 10:12:44 14° 278° (W) 10:15:02
DUCHIFAT 1 27 May 10:10:28 10:13:17 18° 55° (NE) 10:16:14 145.980
Cosmos 2491 27 May 10:17:48 10:22:47 16° 292° (WNW) 10:27:22 435.465 / 435.565
SEEDS 27 May 10:17:57 10:21:57 42° 97° (E) 10:25:56 437.485
Cosmos 2504 27 May 10:19:53 10:27:12 40° 87° (E) 10:34:12 435.465 / 435.565
PCSat 27 May 10:22:53 10:28:20 72° 233° (SW) 10:33:44 145.827
COMPASS 1 27 May 10:30:36 10:34:37 45° 98° (E) 10:38:37 437.405
BUGSAT 1 27 May 10:31:43 10:34:41 19° 56° (ENE) 10:37:46 437.445
TIGRISAT 27 May 10:33:16 10:37:44 46° 67° (ENE) 10:42:10 435.000
UWE-3 27 May 10:39:56 10:43:22 22° 89° (E) 10:46:47 435.000/436.395/437.385
CINEMA 3 27 May 10:40:16 10:44:57 46° 97° (E) 10:49:24 145.822/145.860
AAUSAT CUBESAT 2 27 May 10:42:25 10:46:29 51° 100° (E) 10:50:31 437.432
FUNcube-1 27 May 10:49:03 10:52:20 21° 88° (E) 10:55:38 145.935
QB50P1 27 May 10:51:28 10:55:23 35° 64° (ENE) 10:59:21 145.935-145.965
POLYITAN 1 27 May 10:53:37 10:57:36 37° 65° (ENE) 11:01:37 437.675
UNISAT 6 27 May 10:53:40 10:58:20 69° 70° (ENE) 11:02:56 437.425
RS-15 27 May 10:55:15 11:06:04 72° 128° (SE) 11:17:20 29.354- 29.394
SO-50 27 May 11:03:11 11:08:06 56° 34° (NNE) 11:13:00 436.795
DOVE 4 27 May 11:04:57 11:10:12 70° 289° (WNW) 11:15:10 437.250
DELFI C3 27 May 11:07:14 11:10:56 34° 96° (E) 11:14:39 145.870
YUBILEINY 27 May 11:18:42 11:25:55 27° 311° (NW) 11:32:59 435.215
HUMSAT D 27 May 11:20:38 11:23:46 20° 89° (E) 11:26:57 437.325/437.525
NANOSAT C BR1 27 May 11:22:16 11:26:30 63° 70° (ENE) 11:30:47 145.865
CANX-2 27 May 11:28:21 11:32:17 38° 294° (WNW) 11:36:11 2200.000
ZACube-1 27 May 11:29:15 11:33:30 45° 98° (E) 11:37:38 437.345
CUBEBUG 2 27 May 11:29:19 11:33:52 66° 102° (ESE) 11:38:14 437.445
QB50P2 27 May 11:30:32 11:34:50 76° 73° (ENE) 11:39:11 145.880/145.840
UKube-1 27 May 11:30:33 11:34:05 24° 92° (E) 11:37:39 .
CUTE 1.7 + AOD 2 27 May 11:31:50 11:35:46 38° 294° (WNW) 11:39:40 437.475
AO-7 27 May 11:35:25 11:39:35 15° 1° (N) 11:43:44 29.400- 29.500
ANTELSAT 27 May 11:37:11 11:41:47 54° 260° (W) 11:46:20 437.575/2403.000
DX 1 27 May 11:39:42 11:43:37 30° 95° (E) 11:47:31 434.975-435.025
Oscar 11 27 May 11:40:48 11:45:09 89° 110° (ESE) 11:49:27 145.826/435.025
POPSAT HIP 1 27 May 11:42:41 11:47:01 87° 254° (WSW) 11:51:23 437.405
BRITE-PL 27 May 11:43:53 11:48:30 25° 305° (NW) 11:52:57 437.365/2234.400
GOMX 1 27 May 11:44:14 11:49:01 31° 301° (WNW) 11:53:35 467.674
DUCHIFAT 1 27 May 11:44:18 11:48:36 86° 254° (WSW) 11:52:56 145.980
HO-68 27 May 11:49:09 11:56:08 57° 299° (WNW) 12:03:04 435.675
CUBEBUG 1 27 May 11:53:19 11:55:45 15° 85° (E) 11:58:20 437.445
SEEDS 27 May 11:53:58 11:57:39 30° 297° (WNW) 12:01:16 437.485
VELOX 1 27 May 11:55:34 11:59:15 25° 92° (E) 12:02:58 145.980
GONETS M04 27 May 11:57:09 12:01:06 14° 66° (ENE) 12:05:31
ESTCUBE 1 27 May 12:00:20 12:03:31 19° 88° (E) 12:06:48 437.505/2401.250
Oscar 19 27 May 12:02:34 12:05:43 17° 48° (NE) 12:08:59 437.125/150
BUGSAT 1 27 May 12:05:31 12:09:43 75° 255° (WSW) 12:13:59 437.445
CUSAT 1 27 May 12:05:55 12:10:37 18° 73° (ENE) 12:15:46 437.405
COMPASS 1 27 May 12:06:35 12:10:09 27° 298° (WNW) 12:13:39 437.405
PCSat 27 May 12:07:30 12:10:58 17° 252° (WSW) 12:14:14 145.827
TIGRISAT 27 May 12:10:29 12:14:40 31° 266° (W) 12:18:45 435.000
50 SAT 27 May 12:10:45 12:14:20 33° 96° (E) 12:17:53 437.505
Cosmos 2504 27 May 12:12:20 12:20:25 61° 289° (WNW) 12:27:56 435.465 / 435.565
UWE-3 27 May 12:15:53 12:20:20 60° 290° (WNW) 12:24:36 435.000/436.395/437.385
CINEMA 3 27 May 12:17:40 12:22:02 33° 298° (WNW) 12:26:11 145.822/145.860
AAUSAT CUBESAT 2 27 May 12:18:27 12:21:52 25° 299° (WNW) 12:25:13 437.432
ITAMSAT 1 27 May 12:20:57 12:21:20 10° 39° (NE) 12:21:53 435.822/435.867
FUNcube-1 27 May 12:24:45 12:29:07 62° 290° (WNW) 12:33:20 145.935
AISAT 27 May 12:27:02 12:31:23 45° 99° (E) 12:35:44 437.250
QB50P1 27 May 12:27:16 12:31:15 36° 264° (W) 12:35:16 145.935-145.965
POLYITAN 1 27 May 12:29:35 12:33:33 34° 264° (W) 12:37:31 437.675
SPROUT 27 May 12:31:32 12:32:34 11° 81° (E) 12:33:48 437.525
UNISAT 6 27 May 12:31:58 12:35:34 21° 271° (W) 12:39:03 437.425
DELFI C3 27 May 12:42:25 12:46:03 33° 296° (WNW) 12:49:39 145.870
DOVE 4 27 May 12:43:43 12:47:06 17° 310° (NW) 12:50:17 437.250
SO-50 27 May 12:43:55 12:48:37 42° 234° (SW) 12:53:15 436.795
TISAT 1 27 May 12:52:27 12:54:15 13° 84° (E) 12:56:12 437.305
HUMSAT D 27 May 12:55:46 12:59:56 59° 289° (WNW) 13:04:00 437.325/437.525
Gurwin Techsat 1B 27 May 12:58:08 13:01:16 16° 47° (NE) 13:04:32 435.225
NANOSAT C BR1 27 May 12:59:30 13:02:46 20° 271° (W) 13:05:58 145.865
ZACube-1 27 May 13:05:53 13:09:43 29° 299° (WNW) 13:13:26 437.345
UKube-1 27 May 13:06:16 13:10:33 55° 292° (WNW) 13:14:48 .
CUBEBUG 2 27 May 13:06:34 13:10:11 23° 302° (WNW) 13:13:36 437.445
RS-15 27 May 13:08:04 13:19:01 62° 337° (NNW) 13:30:28 29.354- 29.394
QB50P2 27 May 13:08:23 13:11:18 17° 273° (W) 13:14:07 145.880/145.840
DX 1 27 May 13:15:48 13:20:01 44° 294° (WNW) 13:24:11 434.975-435.025
DANDE 27 May 13:17:12 13:24:02 36° 85° (E) 13:31:38 436.750
Oscar 11 27 May 13:17:56 13:20:48 17° 305° (NW) 13:23:34 145.826/435.025
POPSAT HIP 1 27 May 13:21:16 13:23:37 14° 275° (W) 13:25:50 437.405
DUCHIFAT 1 27 May 13:22:52 13:25:09 14° 275° (W) 13:27:17 145.980
AO-7 27 May 13:23:38 13:29:25 22° 29° (NNE) 13:35:22 29.400- 29.500
YUBILEINY 27 May 13:24:15 13:26:55 11° 343° (NNW) 13:29:24 435.215
CUBEBUG 1 27 May 13:28:22 13:32:51 87° 105° (ESE) 13:37:19 437.445
VELOX 1 27 May 13:31:43 13:36:08 55° 292° (WNW) 13:40:31 145.980
ESTCUBE 1 27 May 13:36:24 13:40:56 74° 289° (WNW) 13:45:28 437.505/2401.250
JAS-2 27 May 13:37:01 13:38:35 11° 40° (NE) 13:40:17 435.910
HO-68 27 May 13:37:36 13:42:37 21° 322° (NW) 13:47:28 435.675
Oscar 19 27 May 13:39:06 13:44:16 66° 68° (ENE) 13:49:26 437.125/150
CUSAT 1 27 May 13:44:12 13:51:49 58° 94° (E) 13:59:57 437.405
BUGSAT 1 27 May 13:44:28 13:46:03 12° 277° (W) 13:47:28 437.445
50 SAT 27 May 13:45:31 13:49:02 32° 296° (WNW) 13:52:29 437.505
GONETS M04 27 May 13:47:33 13:55:58 52° 89° (E) 14:04:27
UWE-3 27 May 13:53:57 13:56:02 13° 311° (NW) 13:57:57 435.000/436.395/437.385
ITAMSAT 1 27 May 13:54:53 13:59:32 36° 60° (ENE) 14:04:17 435.822/435.867
ITUPSAT 1 27 May 13:58:24 13:59:56 12° 81° (E) 14:01:41 437.325
FUNcube-1 27 May 14:02:38 14:04:38 13° 310° (NW) 14:06:30 145.935
AISAT 27 May 14:03:51 14:07:51 31° 299° (WNW) 14:11:48 437.250
BEESAT 27 May 14:05:11 14:07:27 13° 83° (E) 14:09:55 436.000
SPROUT 27 May 14:05:14 14:09:36 68° 103° (ESE) 14:13:55 437.525
Cosmos 2504 27 May 14:10:05 14:15:39 20° 315° (NW) 14:20:48 435.465 / 435.565
SWISSCUBE 27 May 14:13:15 14:16:16 17° 86° (E) 14:19:25 437.505
TISAT 1 27 May 14:26:30 14:30:49 80° 104° (ESE) 14:35:06 437.305
HUMSAT D 27 May 14:33:17 14:34:53 12° 310° (NW) 14:36:20 437.325/437.525
Gurwin Techsat 1B 27 May 14:35:09 14:40:23 63° 68° (ENE) 14:45:40 435.225
UKube-1 27 May 14:44:10 14:45:51 12° 312° (NW) 14:47:24 .
Cosmos 2499 27 May 14:48:50 14:54:55 26° 81° (E) 15:00:52 435.465 / 435.565
DX 1 27 May 14:55:00 14:55:18 10° 314° (NW) 14:55:26 434.975-435.025
DANDE 27 May 14:58:56 15:06:43 76° 287° (WNW) 15:15:25 436.750
CUBEBUG 1 27 May 15:05:36 15:08:42 18° 305° (NW) 15:11:42 437.445
VELOX 1 27 May 15:09:56 15:11:50 12° 312° (NW) 15:13:36 145.980
AO-7 27 May 15:12:40 15:20:32 50° 54° (NE) 15:28:30 29.400- 29.500
ESTCUBE 1 27 May 15:14:26 15:17:09 16° 308° (NW) 15:19:45 437.505/2401.250
JAS-2 27 May 15:16:46 15:22:28 39° 62° (ENE) 15:27:39 435.910
Oscar 19 27 May 15:19:45 15:24:05 26° 270° (W) 15:28:21 437.125/150
RS-15 27 May 15:22:33 15:33:31 55° 9° (N) 15:45:02 29.354- 29.394
YUBILEINY 27 May 15:26:30 15:29:05 11° 17° (NNE) 15:31:53 435.215
HO-68 27 May 15:26:47 15:27:44 10° 348° (NNW) 15:28:36 435.675
CUSAT 1 27 May 15:27:05 15:34:48 50° 297° (WNW) 15:42:50 437.405
HORYU 2 27 May 15:33:45 15:37:59 42° 65° (ENE) 15:42:13 437.375
ITAMSAT 1 27 May 15:33:57 15:38:58 49° 260° (W) 15:44:02 435.822/435.867
ITUPSAT 1 27 May 15:34:06 15:38:53 65° 103° (ESE) 15:43:40 437.325
KKS-1 27 May 15:36:05 15:39:11 18° 88° (E) 15:42:22 437.445
BEESAT 27 May 15:41:25 15:46:13 75° 104° (ESE) 15:51:00 436.000
SPROUT 27 May 15:41:57 15:45:19 22° 302° (WNW) 15:48:35 437.525
GONETS M04 27 May 15:44:21 15:52:59 52° 294° (WNW) 16:01:36
SWISSCUBE 27 May 15:50:02 15:54:52 88° 285° (WNW) 15:59:39 437.505
O/OREOS (USA 219) 27 May 15:51:29 15:54:18 17° 102° (ESE) 15:57:15 437.305
TISAT 1 27 May 16:03:05 16:06:08 19° 304° (NW) 16:09:05 437.305
Gurwin Techsat 1B 27 May 16:16:16 16:20:49 27° 269° (W) 16:25:18 435.225
CUTE-I 27 May 16:16:21 16:17:39 11° 39° (NE) 16:19:08 437.470
Cubesat XI-IV 27 May 16:35:28 16:38:07 14° 44° (NE) 16:40:55 437.490
STARS 27 May 16:38:08 16:42:21 40° 97° (E) 16:46:32 437.465
Cosmos 2499 27 May 16:39:25 16:47:22 86° 281° (W) 16:54:48 435.465 / 435.565
DANDE 27 May 16:44:37 16:51:31 29° 313° (NW) 16:58:39 436.750
JAS-2 27 May 17:01:20 17:07:34 52° 260° (W) 17:13:07 435.910
AO-7 27 May 17:05:10 17:13:21 58° 257° (WSW) 17:21:35 29.400- 29.500
MOZHAYETS 4 27 May 17:09:49 17:12:40 17° 85° (E) 17:15:40
HO-68 27 May 17:10:36 17:12:19 11° 16° (NNE) 17:14:09 435.675
HORYU 2 27 May 17:10:41 17:14:44 32° 265° (W) 17:18:46 437.375
KKS-1 27 May 17:11:53 17:16:25 75° 287° (WNW) 17:20:52 437.445
ITUPSAT 1 27 May 17:12:31 17:16:28 26° 303° (WNW) 17:20:21 437.325
CUSAT 1 27 May 17:13:57 17:19:43 20° 322° (NW) 17:25:17 437.405
BEESAT 27 May 17:19:55 17:23:39 23° 305° (NW) 17:27:19 436.000
YUBILEINY 27 May 17:22:56 17:30:02 27° 49° (NE) 17:37:17 435.215
O/OREOS (USA 219) 27 May 17:28:39 17:33:11 86° 301° (WNW) 17:37:43 437.305
SWISSCUBE 27 May 17:28:46 17:32:09 19° 307° (NW) 17:35:28 437.505
RS-15 27 May 17:35:57 17:47:26 83° 40° (NE) 17:59:28 29.354- 29.394
GONETS M04 27 May 17:46:27 17:52:30 19° 323° (NW) 17:58:19
CUTE-I 27 May 17:51:36 17:56:27 38° 61° (ENE) 18:01:23 437.470
BRITE-PL 27 May 18:10:34 18:12:21 12° 41° (NE) 18:14:20 437.365/2234.400
Cubesat XI-IV 27 May 18:12:04 18:17:12 52° 65° (ENE) 18:22:24 437.490
STARS 27 May 18:14:43 18:18:46 34° 297° (WNW) 18:22:45 437.465
BEESAT 2 27 May 18:28:38 18:30:43 14° 114° (ESE) 18:32:58 435.950
DANDE 27 May 18:34:10 18:38:04 13° 339° (NNW) 18:41:48 436.750
Cosmos 2499 27 May 18:35:19 18:41:41 26° 307° (NW) 18:47:37 435.465 / 435.565
MOZHAYETS 4 27 May 18:45:58 18:50:35 85° 287° (WNW) 18:55:10
KKS-1 27 May 18:49:39 18:52:22 16° 308° (NW) 18:54:59 437.445
CUBESAT XI-V 27 May 18:50:31 18:53:23 16° 85° (E) 18:56:25 437.345
HO-68 27 May 18:52:18 18:57:37 24° 42° (NE) 19:03:03 435.675
JAS-2 27 May 18:52:44 18:54:06 11° 282° (WNW) 18:55:05 435.910
AO-7 27 May 19:03:28 19:08:20 16° 282° (WNW) 19:12:47 29.400- 29.500
CUSAT 1 27 May 19:05:12 19:06:06 10° 349° (N) 19:06:52 437.405
DOVE 4 27 May 19:05:32 19:07:59 14° 46° (NE) 19:10:36 437.250
O/OREOS (USA 219) 27 May 19:09:45 19:13:18 22° 325° (NW) 19:16:46 437.305
BEESAT 3 27 May 19:14:36 19:18:21 36° 125° (SE) 19:22:10 437.485
YUBILEINY 27 May 19:19:43 19:28:30 81° 76° (ENE) 19:37:13 435.215
CANX-2 27 May 19:19:43 19:21:12 12° 50° (NE) 19:22:49 2200.000
CUTE 1.7 + AOD 2 27 May 19:23:13 19:24:38 12° 50° (NE) 19:26:12 437.475
CUTE-I 27 May 19:31:22 19:36:30 47° 261° (W) 19:41:40 437.470
Cosmos 2491 27 May 19:33:02 19:40:56 40° 84° (E) 19:48:59 435.465 / 435.565
GOMX 1 27 May 19:43:35 19:48:07 29° 58° (ENE) 19:52:50 467.674
SEEDS 27 May 19:43:38 19:45:50 14° 53° (NE) 19:48:08 437.485
BRITE-PL 27 May 19:44:34 19:49:29 39° 62° (ENE) 19:54:43 437.365/2234.400
RS-15 27 May 19:48:36 19:59:13 44° 246° (WSW) 20:10:05 29.354- 29.394
Cubesat XI-IV 27 May 19:52:44 19:57:34 33° 266° (W) 20:02:23 437.490
PRISM 27 May 19:53:21 19:56:43 24° 92° (E) 20:00:07 437.425
GONETS M04 27 May 19:53:24 19:54:14 10° 356° (N) 19:55:01
COMPASS 1 27 May 19:55:26 19:57:43 15° 54° (NE) 20:00:08 437.405
AIST 2 27 May 19:59:41 20:03:22 29° 122° (ESE) 20:07:06 435.215
Cosmos 2504 27 May 20:02:40 20:08:21 24° 50° (NE) 20:14:04 435.465 / 435.565
BEESAT 2 27 May 20:04:02 20:08:10 72° 134° (SE) 20:12:20 435.950
AAUSAT CUBESAT 2 27 May 20:06:36 20:09:06 16° 55° (NE) 20:11:42 437.432
UWE-3 27 May 20:11:36 20:12:22 10° 46° (NE) 20:13:17 435.000/436.395/437.385
CINEMA 3 27 May 20:13:12 20:16:51 21° 55° (NE) 20:20:35 145.822/145.860
DANDE 27 May 20:23:48 20:25:34 11° 7° (N) 20:27:24 436.750
MOZHAYETS 4 27 May 20:24:12 20:27:13 17° 306° (NW) 20:30:09
CUBESAT XI-V 27 May 20:26:50 20:31:34 89° 264° (W) 20:36:17 437.345
STRAND 1 27 May 20:27:08 20:32:03 44° 98° (E) 20:36:59 437.568
DELFI C3 27 May 20:29:57 20:30:57 11° 51° (NE) 20:32:06 145.870
HO-68 27 May 20:37:12 20:44:18 67° 64° (ENE) 20:51:27 435.675
DOVE 4 27 May 20:39:37 20:44:39 50° 67° (ENE) 20:49:49 437.250
CUSAT 1 27 May 20:50:55 20:52:58 11° 17° (NNE) 20:55:06 437.405
CANX-2 27 May 20:52:10 20:56:22 58° 70° (ENE) 21:00:33 2200.000
BEESAT 3 27 May 20:52:14 20:56:16 51° 326° (NW) 21:00:19 437.485
O/OREOS (USA 219) 27 May 20:53:46 20:54:27 10° 349° (N) 20:55:05 437.305
CUTE 1.7 + AOD 2 27 May 20:55:35 20:59:46 57° 70° (ENE) 21:03:58 437.475
ZACube-1 27 May 20:57:36 21:00:37 18° 55° (NE) 21:03:42 437.345
CUBEBUG 2 27 May 20:58:45 21:02:35 25° 59° (ENE) 21:06:28 437.445
UKube-1 27 May 20:59:48 21:00:59 11° 47° (NE) 21:02:21 .
Oscar 11 27 May 21:07:15 21:10:54 28° 61° (ENE) 21:14:38 145.826/435.025
AIST 1 27 May 21:08:31 21:12:22 34° 91° (E) 21:16:17
DX 1 27 May 21:08:44 21:10:52 14° 50° (NE) 21:13:08 434.975-435.025
SEEDS 27 May 21:16:47 21:21:00 75° 74° (ENE) 21:25:14 437.485
YUBILEINY 27 May 21:17:12 21:24:36 32° 280° (W) 21:31:48 435.215
GOMX 1 27 May 21:20:35 21:25:52 67° 259° (W) 21:31:23 467.674
BRITE-PL 27 May 21:22:49 21:27:56 47° 264° (W) 21:33:22 437.365/2234.400
VELOX 1 27 May 21:26:59 21:28:32 12° 48° (NE) 21:30:14 145.980
PRISM 27 May 21:28:24 21:32:26 51° 292° (WNW) 21:36:29 437.425
COMPASS 1 27 May 21:28:37 21:32:48 80° 74° (ENE) 21:37:01 437.405
Cosmos 2491 27 May 21:28:41 21:37:28 67° 288° (WNW) 21:46:19 435.465 / 435.565
50 SAT 27 May 21:31:19 21:32:01 10° 51° (NE) 21:32:51 437.505
AIST 2 27 May 21:37:27 21:41:43 64° 322° (NW) 21:46:00 435.215
AAUSAT CUBESAT 2 27 May 21:40:00 21:44:11 89° 75° (ENE) 21:48:22 437.432
BEESAT 2 27 May 21:42:46 21:46:35 33° 335° (NNW) 21:50:24 435.950
UWE-3 27 May 21:43:28 21:47:53 44° 67° (ENE) 21:52:19 435.000/436.395/437.385
M-CUBED/EXP-1 PRIME 27 May 21:44:56 21:48:18 82° 109° (ESE) 21:51:37 437.505
CINEMA 3 27 May 21:48:25 21:53:29 89° 283° (WNW) 21:58:34 145.822/145.860
FUNcube-1 27 May 21:51:13 21:55:30 41° 66° (ENE) 21:59:47 145.935
GONETS M04 27 May 21:51:27 21:56:14 16° 30° (NNE) 22:01:15
AUBIESAT-1 27 May 21:52:14 21:55:36 85° 107° (ESE) 21:58:55 437.475
Cosmos 2504 27 May 21:55:45 22:03:07 82° 77° (ENE) 22:10:19 435.465 / 435.565
AISAT 27 May 21:57:00 22:00:08 19° 55° (NE) 22:03:22 437.250
DELFI C3 27 May 22:01:21 22:05:18 57° 70° (ENE) 22:09:16 145.870
CUBESAT XI-V 27 May 22:05:09 22:08:27 19° 306° (NW) 22:11:39 437.345
RS-15 27 May 22:05:12 22:08:37 11° 270° (W) 22:11:06 29.354- 29.394
STRAND 1 27 May 22:06:29 22:11:16 39° 298° (WNW) 22:16:00 437.568
DANDE 27 May 22:07:16 22:12:43 19° 34° (NE) 22:17:55 436.750
DOVE 4 27 May 22:17:47 22:22:35 35° 267° (W) 22:27:28 437.250
HUMSAT D 27 May 22:18:57 22:22:56 38° 65° (ENE) 22:26:56 437.325/437.525
HO-68 27 May 22:26:02 22:32:35 36° 267° (W) 22:39:05 435.675
CANX-2 27 May 22:29:18 22:32:39 22° 270° (W) 22:35:56 2200.000
BEESAT 3 27 May 22:31:39 22:35:03 24° 349° (N) 22:38:25 437.485
ZACube-1 27 May 22:31:48 22:36:25 87° 68° (ENE) 22:41:00 437.345
UKube-1 27 May 22:32:03 22:36:14 50° 67° (ENE) 22:40:30 .
CUTE 1.7 + AOD 2 27 May 22:32:41 22:36:03 22° 270° (W) 22:39:20 437.475
CUSAT 1 27 May 22:33:00 22:39:02 24° 43° (NE) 22:44:26 437.405
CUBEBUG 2 27 May 22:34:12 22:38:57 65° 258° (WSW) 22:43:41 437.445
O/OREOS (USA 219) 27 May 22:34:39 22:35:58 11° 15° (NNE) 22:37:22 437.305
DX 1 27 May 22:42:03 22:46:23 65° 69° (ENE) 22:50:45 434.975-435.025
Oscar 11 27 May 22:42:42 22:46:55 48° 261° (W) 22:51:09 145.826/435.025
AIST 1 27 May 22:46:05 22:50:02 34° 292° (WNW) 22:54:00
SEEDS 27 May 22:54:33 22:57:21 17° 273° (W) 23:00:03 437.485
CUBEBUG 1 27 May 22:55:58 22:59:46 30° 61° (ENE) 23:03:38 437.445
VELOX 1 27 May 22:59:54 23:04:13 53° 68° (ENE) 23:08:36 145.980
50 SAT 27 May 23:02:03 23:05:57 55° 70° (ENE) 23:09:52 437.505
GOMX 1 27 May 23:02:18 23:05:10 14° 281° (W) 23:07:50 467.674
PRISM 27 May 23:06:08 23:07:03 11° 312° (NW) 23:07:51 437.425
COMPASS 1 27 May 23:06:29 23:09:05 15° 274° (W) 23:11:34 437.405
ESTCUBE 1 27 May 23:06:41 23:10:52 40° 65° (ENE) 23:15:06 437.505/2401.250
AIST 2 27 May 23:17:18 23:20:59 26° 345° (NNW) 23:24:39 435.215
AAUSAT CUBESAT 2 27 May 23:18:13 23:20:29 14° 275° (W) 23:22:36 437.432
UWE-3 27 May 23:20:17 23:24:33 33° 266° (W) 23:28:45 435.000/436.395/437.385
M-CUBED/EXP-1 PRIME 27 May 23:20:52 23:22:45 14° 312° (NW) 23:24:32 437.505
BEESAT 2 27 May 23:22:24 23:25:41 22° 358° (N) 23:28:58 435.950
ANTELSAT 27 May 23:22:32 23:25:45 20° 88° (E) 23:29:01 437.575/2403.000
POPSAT HIP 1 27 May 23:23:36 23:23:55 10° 81° (E) 23:24:26 437.405
DUCHIFAT 1 27 May 23:24:46 23:25:01 10° 81° (E) 23:25:29 145.980
FUNcube-1 27 May 23:27:43 23:31:56 34° 265° (W) 23:36:04 145.935
CINEMA 3 27 May 23:27:57 23:31:25 18° 275° (W) 23:34:44 145.822/145.860
AUBIESAT-1 27 May 23:28:10 23:29:57 14° 312° (NW) 23:31:39 437.475
Cosmos 2491 27 May 23:29:37 23:36:27 23° 316° (NW) 23:43:08 435.465 / 435.565
SPROUT 27 May 23:31:34 23:34:55 23° 58° (ENE) 23:38:22 437.525
AISAT 27 May 23:31:44 23:36:13 84° 252° (WSW) 23:40:45 437.250
DELFI C3 27 May 23:37:43 23:40:46 20° 270° (W) 23:43:46 145.870
BUGSAT 1 27 May 23:42:38 23:43:48 11° 82° (E) 23:45:10 437.445
STRAND 1 27 May 23:48:01 23:49:15 11° 319° (NW) 23:50:18 437.568
GONETS M04 27 May 23:48:09 23:56:22 41° 60° (ENE) 00:04:34
Cosmos 2504 27 May 23:49:57 23:55:45 26° 280° (W) 00:01:19 435.465 / 435.565
DANDE 27 May 23:50:26 23:58:26 47° 60° (ENE) 00:05:09 436.750
TISAT 1 27 May 23:50:50 23:54:19 25° 60° (ENE) 23:57:52 437.305
SWISSCUBE 27 May 23:53:12 23:54:06 11° 44° (NE) 23:55:09 437.505
TIGRISAT 27 May 23:54:26 23:58:31 35° 95° (E) 00:02:30 435.000
HUMSAT D 27 May 23:54:47 23:58:45 34° 265° (W) 00:02:40 437.325/437.525
QB50P1 28 May 00:05:05 00:08:34 24° 91° (E) 00:12:04 145.935-145.965
POLYITAN 1 28 May 00:07:36 00:11:10 25° 92° (E) 00:14:46 437.675
UKube-1 28 May 00:09:00 00:12:39 26° 267° (W) 00:16:17 .
ZACube-1 28 May 00:10:29 00:13:26 16° 274° (W) 00:16:15 437.345
BEESAT 3 28 May 00:10:45 00:14:08 24° 12° (NNE) 00:17:32 437.485
O/OREOS (USA 219) 28 May 00:13:12 00:17:00 26° 40° (NE) 00:20:47 437.305
CUBEBUG 2 28 May 00:14:46 00:16:38 12° 279° (W) 00:18:16 437.445
UNISAT 6 28 May 00:15:12 00:19:34 54° 100° (E) 00:23:50 437.425
CUSAT 1 28 May 00:15:36 00:23:26 70° 70° (ENE) 00:29:38 437.405
DX 1 28 May 00:19:46 00:23:05 20° 270° (W) 00:26:21 434.975-435.025
Cosmos 2499 28 May 00:29:09 00:33:25 17° 42° (NE) 00:37:50 435.465 / 435.565
CUBEBUG 1 28 May 00:31:45 00:35:59 46° 261° (W) 00:40:16 437.445
NANOSAT C BR1 28 May 00:35:43 00:39:49 42° 98° (E) 00:43:54 145.865
VELOX 1 28 May 00:37:19 00:41:04 26° 268° (W) 00:44:47 145.980
50 SAT 28 May 00:37:55 00:41:00 20° 269° (W) 00:44:00 437.505
ESTCUBE 1 28 May 00:43:43 00:47:49 34° 265° (W) 00:51:56 437.505/2401.250
QB50P2 28 May 00:44:28 00:48:42 52° 100° (E) 00:52:53 145.880/145.840
POPSAT HIP 1 28 May 00:56:27 01:00:45 65° 102° (ESE) 01:05:00 437.405
AIST 2 28 May 00:57:11 01:00:42 24° 8° (N) 01:04:12 435.215
DUCHIFAT 1 28 May 00:57:31 01:01:48 65° 102° (ESE) 01:06:03 145.980
ANTELSAT 28 May 00:58:37 01:03:03 66° 290° (WNW) 01:07:21 437.575/2403.000
BEESAT 2 28 May 01:01:07 01:04:49 30° 22° (NNE) 01:08:32 435.950
ISS 28 May 01:04:09 01:06:29 19° 151° (SSE) 01:08:52 145.825
SPROUT 28 May 01:06:22 01:10:40 64° 258° (WSW) 01:15:01 437.525
AISAT 28 May 01:11:08 01:13:35 14° 276° (W) 01:15:54 437.250
ITUPSAT 1 28 May 01:11:09 01:15:18 31° 60° (ENE) 01:19:30 437.325
PCSat 28 May 01:12:47 01:16:51 22° 111° (ESE) 01:21:02 145.827
BUGSAT 1 28 May 01:15:51 01:20:10 70° 104° (ESE) 01:24:26 437.445
BEESAT 28 May 01:17:59 01:22:15 35° 62° (ENE) 01:26:36 436.000
TISAT 1 28 May 01:25:39 01:29:50 54° 259° (W) 01:34:05 437.305
SWISSCUBE 28 May 01:26:25 01:30:53 42° 64° (ENE) 01:35:24 437.505
TIGRISAT 28 May 01:31:11 01:35:19 37° 296° (WNW) 01:39:19 435.000
DANDE 28 May 01:33:57 01:42:00 57° 266° (W) 01:48:33 436.750
Cosmos 2491 28 May 01:35:43 01:37:50 11° 349° (NNW) 01:39:50 435.465 / 435.565
QB50P1 28 May 01:40:31 01:44:44 53° 292° (WNW) 01:48:55 145.935-145.965
POLYITAN 1 28 May 01:43:10 01:47:21 50° 292° (WNW) 01:51:30 437.675
Oscar 19 28 May 01:44:44 01:47:11 14° 82° (E) 01:49:50 437.125/150
GONETS M04 28 May 01:45:09 01:53:54 68° 265° (W) 02:02:31
BEESAT 3 28 May 01:48:50 01:52:53 53° 35° (NE) 01:56:54 437.485
UNISAT 6 28 May 01:52:23 01:56:07 26° 301° (WNW) 01:59:43 437.425
O/OREOS (USA 219) 28 May 01:52:24 01:56:52 71° 242° (WSW) 02:01:19 437.305
CUSAT 1 28 May 01:58:55 02:05:32 33° 276° (W) 02:10:55 437.405
STARS 28 May 02:07:35 02:10:26 17° 53° (NE) 02:13:23 437.465
NANOSAT C BR1 28 May 02:11:45 02:15:34 31° 298° (WNW) 02:19:18 145.865
QB50P2 28 May 02:20:45 02:24:22 26° 300° (WNW) 02:27:55 145.880/145.840
Cosmos 2499 28 May 02:21:35 02:28:34 56° 69° (ENE) 02:35:32 435.465 / 435.565
POPSAT HIP 1 28 May 02:32:55 02:36:17 22° 302° (WNW) 02:39:34 437.405
DUCHIFAT 1 28 May 02:33:56 02:37:16 22° 302° (WNW) 02:40:31 145.980
AIST 2 28 May 02:36:01 02:40:10 46° 32° (NNE) 02:44:15 435.215
ANTELSAT 28 May 02:36:47 02:39:05 14° 310° (NW) 02:41:13 437.575/2403.000
BEESAT 2 28 May 02:39:11 02:43:21 86° 226° (SW) 02:47:28 435.950
ISS 28 May 02:39:19 02:42:23 39° 171° (S) 02:45:29 145.825
KKS-1 28 May 02:40:49 02:45:00 40° 65° (ENE) 02:49:15 437.445
Gurwin Techsat 1B 28 May 02:45:08 02:47:55 15° 82° (E) 02:50:54 435.225
SPROUT 28 May 02:47:09 02:47:45 10° 279° (W) 02:48:08 437.525
ITUPSAT 1 28 May 02:48:24 02:53:02 51° 260° (W) 02:57:43 437.325
BUGSAT 1 28 May 02:52:00 02:55:14 21° 303° (WNW) 02:58:24 437.445
PCSat 28 May 02:54:16 02:59:42 90° 344° (NNW) 03:05:11 145.827
BEESAT 28 May 02:55:29 03:00:03 44° 262° (W) 03:04:38 436.000
SWISSCUBE 28 May 03:04:28 03:08:51 35° 264° (W) 03:13:14 437.505
SO-50 28 May 03:07:41 03:09:28 12° 110° (ESE) 03:11:29 436.795
